Oak Island, MN

9:32 AM CST on February 19, 2017 (GMT -0600)
Flag Island

Weather History for KFGN - January, 2013

Change the Weather History Date:

Tuesday, January 15, 2013

  Actual Average Record
Temperature  
Mean Temperature 7 °F -  
Max Temperature 19 °F 8 °F 33 °F (2006)
Min Temperature -5 °F -3 °F -31 °F (2005)
Degree Days  
Heating Degree Days 58    
Moisture  
Dew Point 3 °F    
Average Humidity 83    
Maximum Humidity 93    
Minimum Humidity 73    
Precipitation  
Precipitation 0.00 in - - ()
Sea Level Pressure  
Sea Level Pressure 29.80 in    
Wind  
Wind Speed 9 mph (South)    
Max Wind Speed 22 mph    
Max Gust Speed 25 mph    
Visibility 9 miles    
Events Snow    
Averages and records for this station are not official NWS values.
T = Trace of Precipitation, MM = Missing Value Source: NWS Daily Summary

Daily Weather History Graph

Daily Weather History Graph

Search for Another Location

Airport or City:

Trip Planner

Search our weather history database for the weather conditions in past years. The results will help you decide how hot, cold, wet, or windy it might be!

Date:

Astronomy

Jan. 15, 2013 Rise Set
Actual Time 8:09 AM CST 4:49 PM CST
Civil Twilight 7:33 AM CST 5:25 PM CST
Nautical Twilight 6:53 AM CST 6:05 PM CST
Astronomical Twilight 6:15 AM CST 6:43 PM CST
Moon 9:47 AM CST (1/15) 10:11 PM CST (1/15)
Length of Visible Light 9h 52m
Length of Day
8h 40m
Waxing Crescent, 19% of the Moon is Illuminated
Jan 15
Waxing Crescent
Jan 18
First Quarter
Jan 26
Full
Feb 3
Last Quarter
Feb 10
New

Hourly Weather History & Observations

Time (CST) Temp. Windchill Dew Point Humidity Pressure Visibility Wind Dir Wind Speed Gust Speed Precip Events Conditions
12:13 AM -5.8 °F -18.4 °F -9.4 °F 84% 30.09 in 10.0 mi SSE 5.8 mph - N/A Snow Light Snow
12:33 AM -5.8 °F -18.4 °F -9.4 °F 84% 30.09 in 10.0 mi SE 5.8 mph - N/A Snow Light Snow
12:54 AM -5.8 °F -19.9 °F -9.4 °F 84% 30.09 in 10.0 mi SSE 6.9 mph - N/A Snow Light Snow
1:34 AM -5.8 °F -18.4 °F -9.4 °F 84% 30.07 in 10.0 mi SSE 5.8 mph - N/A   Mostly Cloudy
1:53 AM -5.8 °F -16.7 °F -9.4 °F 84% 30.07 in 10.0 mi SSE 4.6 mph - N/A   Scattered Clouds
2:13 AM -5.8 °F -16.7 °F -9.4 °F 84% 30.07 in 10.0 mi SSE 4.6 mph - N/A   Mostly Cloudy
2:34 AM -5.8 °F -19.9 °F -9.4 °F 84% 30.06 in 10.0 mi SSE 6.9 mph - N/A   Overcast
2:53 AM -5.8 °F -18.4 °F -9.4 °F 84% 30.06 in 10.0 mi SSE 5.8 mph - N/A   Overcast
3:13 AM -5.8 °F -16.7 °F -9.4 °F 84% 30.05 in 10.0 mi SSE 4.6 mph - N/A   Overcast
3:33 AM -4.0 °F -14.6 °F -7.6 °F 85% 30.04 in 10.0 mi SSE 4.6 mph - N/A   Overcast
3:53 AM -2.2 °F -14.2 °F -5.8 °F 85% 30.03 in 10.0 mi SSE 5.8 mph - N/A   Overcast
4:14 AM -2.2 °F -12.5 °F -5.8 °F 85% 30.02 in 10.0 mi SE 4.6 mph - N/A   Overcast
4:33 AM -2.2 °F -12.5 °F -5.8 °F 85% 30.01 in 10.0 mi SE 4.6 mph - N/A Snow Light Snow
4:53 AM -0.4 °F -8.3 °F -4.0 °F 85% 30.00 in 10.0 mi SE 3.5 mph - N/A   Overcast
5:14 AM -0.4 °F -12.0 °F -4.0 °F 85% 29.99 in 10.0 mi SSE 5.8 mph - N/A   Overcast
5:33 AM -0.4 °F -12.0 °F -2.2 °F 92% 29.98 in 10.0 mi SSE 5.8 mph - N/A   Overcast
5:53 AM -0.4 °F -13.4 °F -4.0 °F 85% 29.98 in 10.0 mi SSE 6.9 mph - N/A   Overcast
6:14 AM -0.4 °F -13.4 °F -4.0 °F 85% 29.97 in 10.0 mi SE 6.9 mph - N/A   Overcast
6:33 AM -0.4 °F -13.4 °F -4.0 °F 85% 29.96 in 10.0 mi SE 6.9 mph - N/A Snow Light Snow
6:53 AM -0.4 °F -14.7 °F -2.2 °F 92% 29.95 in 10.0 mi SSE 8.1 mph - N/A   Overcast
7:14 AM -0.4 °F -13.4 °F -4.0 °F 85% 29.95 in 10.0 mi SSE 6.9 mph - N/A   Overcast
7:33 AM 1.4 °F -11.3 °F -0.4 °F 92% 29.95 in 10.0 mi SSW 6.9 mph - N/A   Overcast
7:53 AM 3.2 °F -11.3 °F 1.4 °F 92% 29.95 in 10.0 mi SSW 9.2 mph - N/A   Overcast
8:14 AM 5.0 °F -6.9 °F 1.4 °F 85% 29.95 in 10.0 mi South 6.9 mph - N/A   Overcast
8:33 AM 5.0 °F -8.1 °F 1.4 °F 85% 29.95 in 10.0 mi South 8.1 mph - N/A   Overcast
8:53 AM 5.0 °F -8.1 °F 1.4 °F 85% 29.94 in 10.0 mi South 8.1 mph - N/A   Overcast
9:14 AM 1.4 °F -12.5 °F -0.4 °F 92% 29.94 in 10.0 mi South 8.1 mph - N/A   Scattered Clouds
9:33 AM 1.4 °F -9.9 °F -2.2 °F 85% 29.93 in 10.0 mi South 5.8 mph - N/A   Clear
9:53 AM 3.2 °F -11.3 °F -0.4 °F 85% 29.92 in 10.0 mi SSE 9.2 mph - N/A   Scattered Clouds
10:14 AM 1.4 °F -13.5 °F -2.2 °F 85% 29.91 in 10.0 mi SSE 9.2 mph - N/A   Mostly Cloudy
10:33 AM 3.2 °F -10.3 °F -0.4 °F 85% 29.91 in 10.0 mi SSE 8.1 mph - N/A   Mostly Cloudy
10:53 AM 3.2 °F -13.1 °F -0.4 °F 85% 29.90 in 10.0 mi South 11.5 mph - N/A   Clear
11:14 AM 5.0 °F -12.3 °F 1.4 °F 85% 29.87 in 10.0 mi South 13.8 mph - N/A   Clear
11:33 AM 6.8 °F -10.0 °F 3.2 °F 85% 29.85 in 10.0 mi South 13.8 mph - N/A   Clear
11:53 AM 10.4 °F -7.7 °F 3.2 °F 73% 29.84 in 7.0 mi SSW 18.4 mph 21.9 mph N/A   Clear
12:14 PM 12.2 °F -3.1 °F 5.0 °F 73% 29.83 in 7.0 mi SSW 13.8 mph 19.6 mph N/A Snow Light Snow
12:33 PM 12.2 °F -4.3 °F 6.8 °F 79% 29.81 in 5.0 mi SSW 16.1 mph - N/A Snow Light Snow
12:53 PM 12.2 °F -3.7 °F 6.8 °F 79% 29.80 in 5.0 mi SW 15.0 mph 24.2 mph N/A Snow Light Snow
1:14 PM 12.2 °F -4.8 °F 6.8 °F 79% 29.78 in 10.0 mi SSW 17.3 mph - N/A   Clear
1:33 PM 14.0 °F -2.5 °F 6.8 °F 73% 29.78 in 10.0 mi SSW 17.3 mph - N/A Snow Light Snow
1:53 PM 14.0 °F -3.9 °F 6.8 °F 73% 29.77 in 4.0 mi SSW 20.7 mph 24.2 mph N/A   Haze
2:14 PM 14.0 °F -2.5 °F 6.8 °F 73% 29.76 in 10.0 mi SSW 17.3 mph 24.2 mph N/A   Clear
2:33 PM 14.0 °F -4.3 °F 8.6 °F 79% 29.76 in 10.0 mi SW 21.9 mph 25.3 mph N/A   Clear
2:53 PM 15.8 °F -0.6 °F 8.6 °F 73% 29.75 in 10.0 mi SSW 18.4 mph - N/A   Clear
3:33 PM 15.8 °F 3.4 °F 8.6 °F 73% 29.72 in 10.0 mi SSW 10.4 mph - N/A   Clear
3:53 PM 15.8 °F 2.7 °F 8.6 °F 73% 29.71 in 10.0 mi SSW 11.5 mph - N/A   Clear
4:33 PM 15.8 °F 1.4 °F 8.6 °F 73% 29.68 in 10.0 mi South 13.8 mph - N/A   Clear
4:53 PM 15.8 °F 0.3 °F 8.6 °F 73% 29.67 in 10.0 mi SSW 16.1 mph 19.6 mph N/A   Clear
5:14 PM 15.8 °F -0.2 °F 10.4 °F 79% 29.65 in 10.0 mi South 17.3 mph - N/A   Clear
5:33 PM 15.8 °F -0.2 °F 10.4 °F 79% 29.64 in 10.0 mi SSW 17.3 mph - N/A   Clear
5:53 PM 15.8 °F -0.2 °F 10.4 °F 79% 29.62 in 10.0 mi South 17.3 mph 23.0 mph N/A   Clear
6:14 PM 15.8 °F 2.1 °F 8.6 °F 73% 29.61 in 10.0 mi South 12.7 mph 20.7 mph N/A   Clear
6:34 PM 15.8 °F 0.9 °F 10.4 °F 79% 29.60 in 10.0 mi SSW 15.0 mph - N/A   Scattered Clouds
6:53 PM 15.8 °F 0.9 °F 10.4 °F 79% 29.59 in 10.0 mi South 15.0 mph 24.2 mph N/A   Scattered Clouds
7:14 PM 15.8 °F 0.9 °F 10.4 °F 79% 29.58 in 10.0 mi South 15.0 mph - N/A   Mostly Cloudy
7:33 PM 15.8 °F 2.1 °F 10.4 °F 79% 29.58 in 10.0 mi South 12.7 mph - N/A   Overcast
7:53 PM 15.8 °F 2.7 °F 10.4 °F 79% 29.56 in 10.0 mi South 11.5 mph 18.4 mph N/A   Overcast
8:14 PM 15.8 °F 0.9 °F 10.4 °F 79% 29.53 in 10.0 mi South 15.0 mph - N/A   Overcast
8:33 PM 15.8 °F 0.9 °F 12.2 °F 86% 29.50 in 10.0 mi South 15.0 mph 19.6 mph N/A   Overcast
8:53 PM 15.8 °F 0.3 °F 12.2 °F 86% 29.48 in 7.0 mi South 16.1 mph - N/A   Overcast
9:14 PM 17.6 °F 2.7 °F 12.2 °F 79% 29.45 in 1.8 mi South 16.1 mph - N/A Snow Light Snow
9:33 PM 17.6 °F 2.2 °F 14.0 °F 86% 29.43 in 1.5 mi South 17.3 mph 23.0 mph N/A Snow Light Snow
9:53 PM 17.6 °F 2.2 °F 15.8 °F 93% 29.42 in 1.8 mi South 17.3 mph 21.9 mph N/A Snow Light Snow
10:14 PM 17.6 °F 3.2 °F 15.8 °F 93% 29.41 in 0.8 mi SSW 15.0 mph 21.9 mph N/A Snow Snow
10:33 PM 19.4 °F 5.0 °F 15.8 °F 86% 29.40 in 1.8 mi SSW 16.1 mph 23.0 mph N/A   Overcast
10:53 PM 19.4 °F 4.5 °F 17.6 °F 93% 29.40 in 2.5 mi SSW 17.3 mph - N/A   Overcast
11:14 PM 19.4 °F 3.2 °F 17.6 °F 93% 29.39 in 4.0 mi SSW 20.7 mph - N/A   Overcast
11:33 PM 19.4 °F 4.5 °F 17.6 °F 93% 29.39 in 5.0 mi SW 17.3 mph 23.0 mph N/A   Overcast